Regional Weather Roundup
Issued by NWS

Home | Current Version | Previous Version | Graphics & Text | Print | Product List | Glossary On
Versions: 1 2 3 4 5 6 7 8 9 10 11 12 13 14 15 16 17 18 19 20 21 22 23 24 25 26 27 28 29 30 31 32 33 34 35 36 37 38 39 40 41 42 43 44 45 46 47 48 49 50
000
ASUS43 KLMK 020910
RWRKY
KENTUCKY REGIONAL WEATHER ROUNDUP
NATIONAL WEATHER SERVICE LOUISVILLE KY
400 AM EST MON MAR 02 2015

NOTE "FAIR" INDICATES FEW OR NO CLOUDS BELOW 12,000 FEET
WITH NO SIGNIFICANT WEATHER AND/OR OBSTRUCTIONS TO VISIBILITY.

KYZ001>023-026-027-061>063-070>075-021000-
WESTERN AND SOUTH CENTRAL KENTUCKY

CITY           SKY/WX    TMP DP  RH WIND       PRES   REMARKS
PADUCAH        CLEAR     29  23  78 N9        30.48R WCI  20
HENDERSON      CLEAR     27  19  74 N10       30.49R WCI  17
OWENSBORO      PTCLDY    27  22  81 N7        30.49R WCI  20
HOPKINSVILLE   CLOUDY    32  27  80 N6        30.44R WCI  26
BOWLING GREEN  CLOUDY    32  29  88 N8        30.42S WCI  25
GLASGOW        CLOUDY    32  32 100 N6        30.40R FOG     WCI  26
$$

KYZ024-025-028>034-038-045-046-053-021000-
NORTH CENTRAL KENTUCKY

CITY           SKY/WX    TMP DP  RH WIND       PRES   REMARKS
LOUISVILLE/SDF MOCLDY    29  22  75 NW12      30.44R WCI  19
LOUISVILLE/LOU CLOUDY    30  23  75 NW13      30.43R WCI  20
FORT KNOX      MOCLDY    28  25  86 NW8       30.40R WCI  20
$$

KYZ035>037-039>044-047>052-055>060-089>105-021000-
NORTHEAST KENTUCKY

CITY           SKY/WX    TMP DP  RH WIND       PRES   REMARKS
LEXINGTON      CLOUDY    31  29  92 NW9       30.37R WCI  23
COVINGTON      PTCLDY    24  18  77 NW14G22   30.40R WCI  12
FRANKFORT      CLOUDY    31  26  82 NW10      30.37R WCI  22
$$

KYZ054-064>069-076>088-106>120-021000-
SOUTHEAST KENTUCKY

CITY           SKY/WX    TMP DP  RH WIND       PRES   REMARKS
JACKSON        MIX PCPN  34  32  92 W6        30.30R FOG     WCI  29
LONDON         LGT RAIN  36  33  89 NW5       30.33R FOG     WCI  32
SOMERSET       LGT RAIN  34  34 100 N5        30.37R WCI  30
MIDDLESBORO    LGT RAIN  37  37 100 CALM      30.30R
MONTICELLO     LGT SNOW  36  35  96 CALM      30.38S FOG
$$



USA.gov is the U.S. government's official web portal to all federal, state and local government web resources and services.